Weather History for CYMX - February, 2014

Change the Weather History Date:

Thursday, February 6, 2014

  Actual Average Record
Temperature  
Mean Temperature -2 °F -  
Max Temperature 8 °F 21 °F 35 °F (2011)
Min Temperature -11 °F 4 °F -16 °F (2015)
Degree Days  
Heating Degree Days 66    
Moisture  
Dew Point -7 °F    
Average Humidity 72    
Maximum Humidity 85    
Minimum Humidity 57    
Precipitation  
Precipitation 0.00 in - - ()
Sea Level Pressure  
Sea Level Pressure 30.23 in    
Wind  
Wind Speed 4 mph ()    
Max Wind Speed 12 mph    
Max Gust Speed -    
Visibility 8.2 miles    
Events Snow    
Averages and records for this station are not official NWS values.
T = Trace of Precipitation, MM = Missing Value Source: Averaged Metar Reports

Daily Weather History Graph

Daily Weather History Graph

Search for Another Location

Airport or City:

Trip Planner

Search our weather history database for the weather conditions in past years. The results will help you decide how hot, cold, wet, or windy it might be!

Date:

Astronomy

Feb. 06, 2014 Rise Set
Actual Time 7:11 AM EST 5:09 PM EST
Civil Twilight 6:40 AM EST 5:41 PM EST
Nautical Twilight 6:04 AM EST 6:16 PM EST
Astronomical Twilight 5:30 AM EST 6:50 PM EST
Moon 10:39 AM EST (2/6) 12:24 AM EST (2/6)
Length of Visible Light 11h 01m
Length of Day
9h 58m
Waxing Crescent, 49% of the Moon is Illuminated
Feb 6
Waxing Crescent
Feb 6
First Quarter
Feb 14
Full
Feb 22
Last Quarter
Mar 1
New

Hourly Weather History & Observations

Time (EST) Temp. Windchill Dew Point Humidity Pressure Visibility Wind Dir Wind Speed Gust Speed Precip Events Conditions
12:00 AM 3.2 °F -7.8 °F -5.8 °F 66% 30.18 in 25.0 mi North 5.8 mph - N/A   Partly Cloudy
1:00 AM 1.4 °F -8.3 °F -7.6 °F 66% 30.21 in 25.0 mi North 4.6 mph - N/A   Clear
2:00 AM -0.4 °F -8.3 °F -7.6 °F 72% 30.22 in 25.0 mi NW 3.5 mph - N/A   Clear
3:00 AM -2.2 °F -10.4 °F -9.4 °F 71% 30.24 in 25.0 mi NW 3.5 mph - N/A   Clear
4:00 AM -4.0 °F - -11.2 °F 71% 30.25 in 25.0 mi Calm Calm - N/A   Clear
5:00 AM -9.4 °F -20.9 °F -14.8 °F 77% 30.28 in 25.0 mi West 4.6 mph - N/A   Partly Cloudy
6:00 AM -11.2 °F - -16.6 °F 77% 30.28 in 25.0 mi WSW 2.3 mph - N/A   Scattered Clouds
7:00 AM -11.2 °F - -18.4 °F 70% 30.31 in 45.0 mi WSW 2.3 mph - N/A   Scattered Clouds
8:00 AM -11.2 °F - -18.4 °F 70% 30.31 in 30.0 mi Calm Calm - N/A   Mostly Cloudy
9:00 AM -7.6 °F -18.8 °F -13.0 °F 77% 30.32 in 45.0 mi WSW 4.6 mph - N/A   Mostly Cloudy
10:00 AM -2.2 °F -10.4 °F -7.6 °F 78% 30.32 in 25.0 mi SW 3.5 mph - N/A   Mostly Cloudy
11:00 AM 1.4 °F -13.5 °F -7.6 °F 66% 30.32 in 45.0 mi SSW 9.2 mph - N/A   Mostly Cloudy
12:00 PM 3.2 °F -12.2 °F -5.8 °F 66% 30.30 in 45.0 mi SSW 10.4 mph - N/A   Mostly Cloudy
1:00 PM 6.8 °F -8.6 °F -4.0 °F 61% 30.26 in 45.0 mi SW 11.5 mph - N/A   Mostly Cloudy
2:00 PM 6.8 °F -8.6 °F -4.0 °F 61% 30.24 in 45.0 mi SW 11.5 mph - N/A   Scattered Clouds
3:00 PM 8.6 °F -6.3 °F -4.0 °F 57% 30.24 in 45.0 mi WSW 11.5 mph - N/A   Mostly Cloudy
4:00 PM 8.6 °F -1.3 °F -2.2 °F 62% 30.22 in 45.0 mi WSW 5.8 mph - N/A   Mostly Cloudy
5:00 PM 6.8 °F -2.0 °F -2.2 °F 67% 30.22 in 45.0 mi WSW 4.6 mph - N/A   Mostly Cloudy
6:00 PM 3.2 °F -4.2 °F -4.0 °F 72% 30.19 in 25.0 mi South 3.5 mph - N/A   Scattered Clouds
7:00 PM -0.4 °F -10.4 °F -5.8 °F 78% 30.18 in 25.0 mi SSW 4.6 mph - N/A   Mostly Cloudy
7:15 PM 1.4 °F - -4.0 °F 78% 30.18 in 10.0 mi SW 2.3 mph - N/A Snow Light Snow
8:00 PM 1.4 °F - -2.2 °F 85% 30.16 in 10.0 mi Calm Calm - N/A Snow Light Snow
9:00 PM 3.2 °F - -0.4 °F 85% 30.14 in 10.0 mi Calm Calm - N/A Snow Light Snow
10:00 PM 3.2 °F -6.2 °F -2.2 °F 78% 30.13 in 5.0 mi NNW 4.6 mph - N/A Snow Light Snow
11:00 PM 3.2 °F - -0.4 °F 85% 30.12 in 6.0 mi NW 2.3 mph - N/A Snow Light Snow